[[{"header":{"parameterUnit":"m.s-1","parameterCategory":1,"la1":30.2991,"la2":30.254,"lo1":-89.0895,"lo2":-89.0444,"dy":0.0017,"dx":0.0017,"nx":28,"ny":28,"refTime":"2023-07-31T21:00:00:Z","depth":0,"parameterNumber":2,"parameterNumberName":"U-component_of_WINDS"},"data":[0,0,0,0,0,0,0,0,0,0,0,0,0,0,0,0,0,0,0,0,0,0,0,0,0,0,0,0,0,0,0,0,0,0,0,0,0,0,0,0,0,0,0,0,0,0,0,0,0,0,0,0,0,0,0,0,0,0,0.9165,0.9167,0,0.9325,0.9327,0.9328,0.9343,0.9341,0.934,0.9338,0.9505,0.9511,0.9517,0,0,0,0,0,0,0,0,0,0,0,0,0,0.8876,0.8881,0.9165,0.9167,0.9169,0.9325,0.9327,0.9329,0.9343,0.9341,0.9339,0.9337,0.9503,0.951,0.9517,0,0,0,0,0,0,0,0,0,0,0,0,0,0.9015,0.8883,0.9165,0.9195,0.9199,0.9324,0.9327,0.933,0.9344,0.9341,0.9339,0.9336,0.9501,0.9509,0.9518,0.9625,0,0,0.9546,0.955,0,0,0,0,0,0,0,0,0.9007,0.9026,0.9189,0.9193,0.9198,0.9311,0.9286,0.9429,0.9345,0.9289,0.9338,0.9335,0.9443,0.9457,0.9492,0.9633,0.964,0.9547,0.9552,0.9556,0.9559,0,0,0,0,0,0,0,0.8997,0.9019,0.9229,0.9191,0.9197,0.9201,0.9218,0.9313,0.9378,0.9294,0.9295,0.9314,0.9445,0.9483,0.9496,0.9642,0.9546,0.9555,0.956,0.9564,0.9877,0.9879,0,0,0,0,0,0,0.8982,0.9011,0.9223,0.9233,0.9094,0.9209,0.9228,0.9278,0.9377,0.939,0.9316,0.9314,0.9469,0.9486,0.9502,0.9632,0.9556,0.9564,0.957,0.9874,0.9877,0.988,0,0,0,0,0,0,0.8975,0.9,0.9217,0.9122,0.915,0.9216,0.9272,0.9282,0.932,0.9394,0.9406,0.9343,0.9468,0.9489,0.9594,0.9638,0.9569,0.9577,0.987,0.9875,0.9879,0.9893,0,0,0,0,0,0,0.8967,0.8998,0.9039,0.9123,0.9155,0.9305,0.9275,0.9287,0.9336,0.9335,0.9422,0.9435,0.9468,0.958,0.9602,0.9649,0.9584,0.9867,0.9872,0.9877,0.9889,0.9897,0.9905,0,0,0,0,0,0.8957,0.9038,0.9041,0.9066,0.9207,0.9308,0.9326,0.9361,0.9339,0.9381,0.9428,0.9432,0.9629,0.9591,0.9616,0.9666,0.9864,0.9871,0.9877,0.9886,0.9896,0.9905,0,0,0,0,0,0,0.8958,0.9049,0.9054,0.9164,0.9228,0.931,0.9364,0.9372,0.9444,0.944,0.9482,0.9501,0.9604,0.9646,0.9601,0.9774,0.9745,0.9756,0.9742,0.9753,0.976,0.9748,0.9591,0,0,0,0,0,0.8971,0.9044,0.912,0.9211,0.9242,0.9297,0.9342,0.9364,0.9432,0.9459,0.9514,0.9581,0.9658,0.9708,0.9783,0.9895,0.9914,0.9942,0.995,0.9956,0.9966,1.0027,1.004,0.9902,0.9902,0.9902,0,0,0.8999,0.9058,0.9102,0.9212,0.9264,0.9339,0.932,0.9401,0.9457,0.9472,0.9573,0.9615,0.9693,0.9801,0.9851,0.9839,1.0008,0.9964,0.9969,0.9975,1.0035,1.0048,1.0059,0.9906,0.9905,0.9905,0,0,0.9089,0.9141,0.9221,0.9273,0.9351,0.9387,0.9406,0.9486,0.9514,0.9616,0.9629,0.9697,0.9829,0.9883,0.9928,1.0035,1.0042,1.0059,1.01,1.0159,1.017,1.018,1.0217,1.023,1.0068,1.0069,1.0069,0,0.9114,0.9226,0.9261,0.9341,0.9389,0.9404,0.9486,0.9535,0.9634,0.9667,0.9651,0.9816,0.987,0.999,1.0016,1.0052,1.0075,1.0049,1.0165,1.0175,1.0185,1.0221,1.0235,1.007,1.007,1.007,1.007,0,0.9253,0.9331,0.9386,0.9479,0.9534,0.9614,0.9661,0.9712,0.9729,0.9766,0.9869,0.9934,1.0021,1.0052,1.007,1.0174,1.0164,1.0156,1.0128,1.0199,1.0234,1.0248,1.0072,1.0072,1.0071,1.0071,0,0,0.9348,0.9458,0.9478,0.9519,0.9606,0.9668,0.9748,0.9833,0.9875,0.9943,1.0011,1.0122,1.0115,1.0166,1.019,1.0242,1.0321,1.0228,1.023,1.0242,1.044,1.0444,1.0459,1.0326,1.0329,1.0331,1.0433,0,0.9445,0.9588,0.9621,0.9744,0.9816,0.9832,0.9902,0.9963,1.0,1.0067,1.0109,1.0186,1.0171,1.0202,1.0254,1.03,1.0361,1.0294,1.039,1.0393,1.0369,1.0477,1.0483,1.0575,1.0446,1.0449,1.045,0,0.9579,0.9647,0.9776,0.9852,0.9884,0.9946,1.0025,1.0089,1.0159,1.0182,1.0238,1.0256,1.0341,1.0308,1.0426,1.0379,1.042,1.0449,1.0454,1.0463,1.0425,1.0489,1.0606,1.0619,1.0472,1.0471,1.0469,0,0.9632,0.9758,0.9851,0.9887,0.9978,1.0021,1.0061,1.0128,1.0176,1.0246,1.0277,1.0357,1.04,1.0461,1.05,1.0473,1.0614,1.0585,1.0635,1.0634,1.0664,1.0661,1.0787,1.0692,1.0692,1.0692,1.0691,0,0.9737,0.9816,0.9876,0.9933,1.0021,1.0059,1.0145,1.0186,1.0245,1.0311,1.033,1.0391,1.044,1.0508,1.054,1.0631,1.0651,1.0672,1.0679,1.067,1.0667,1.0697,1.0691,1.0695,1.0695,1.0694,1.0693,0,0.9812,0.9856,0.9958,1.0036,1.0057,1.0118,1.0185,1.0241,1.0279,1.0361,1.0383,1.0442,1.0523,1.0568,1.0671,1.0692,1.0793,1.0798,1.0769,1.0772,1.0819,1.0814,1.0969,1.099,1.0882,1.0883,1.0884,0,0.9876,0.9936,1.0019,1.0064,1.0104,1.0176,1.0225,1.0264,1.0314,1.0397,1.0443,1.0525,1.0592,1.0721,1.0774,1.0852,1.0858,1.0907,1.087,1.0858,1.0857,1.0852,1.0858,1.0913,1.0914,1.0915,1.0915,0,0.9983,1.0001,1.007,1.0146,1.0203,1.0265,1.0327,1.0363,1.0413,1.0468,1.055,1.0602,1.0705,1.0786,1.0868,1.0911,1.0921,1.0927,1.0942,1.0932,1.0912,1.0922,1.0785,1.0923,1.0922,1.0921,1.0921,1.0921,1.0053,1.0106,1.0173,1.0249,1.0299,1.0356,1.0412,1.0456,1.0524,1.0611,1.063,1.0717,1.0784,1.0895,1.094,1.1008,1.0999,1.1022,1.1028,1.1032,1.1033,1.0902,1.1024,1.1023,1.1023,1.1023,1.1023,0,1.0159,1.0203,1.0272,1.0357,1.0416,1.042,1.0489,1.0538,1.0613,1.0675,1.074,1.0834,1.0912,1.0971,1.1051,1.1094,1.1101,1.1114,1.111,1.112,1.1037,1.1015,1.1107,1.1107,1.1107,1.1107,1.1107,1.1107,1.0222,1.0312,1.0338,1.0454,1.0497,1.0581,1.0619,1.0672,1.0721,1.0824,1.0889,1.0926,1.0986,1.107,1.1142,1.1157,1.1185,1.1197,1.1213,1.1135,1.1126,1.1117,1.1096,1.1203,1.1203,1.1289,1.129,1.1291]},{"header":{"parameterUnit":"m.s-1","parameterCategory":1,"la1":30.2991,"la2":30.254,"lo1":-89.0895,"lo2":-89.0444,"dy":0.0017,"dx":0.0017,"nx":28,"ny":28,"refTime":"2023-07-31T21:00:00:Z","depth":0,"parameterNumber":3,"parameterNumberName":"V-component_of_WINDS"},"data":[0,0,0,0,0,0,0,0,0,0,0,0,0,0,0,0,0,0,0,0,0,0,0,0,0,0,0,0,0,0,0,0,0,0,0,0,0,0,0,0,0,0,0,0,0,0,0,0,0,0,0,0,0,0,0,0,0,0,3.3128,3.3128,0,3.3096,3.3096,3.3095,3.3072,3.3071,3.3071,3.3071,3.3036,3.3035,3.3035,0,0,0,0,0,0,0,0,0,0,0,0,0,3.3167,3.3166,3.3128,3.3128,3.3128,3.3096,3.3096,3.3095,3.3072,3.3071,3.3071,3.3071,3.3036,3.3035,3.3035,0,0,0,0,0,0,0,0,0,0,0,0,0,3.3144,3.3166,3.3128,3.3112,3.311,3.3096,3.3096,3.3095,3.3072,3.3071,3.3071,3.3071,3.3037,3.3036,3.3034,3.3034,0,0,3.3031,3.3031,0,0,0,0,0,0,0,0,3.3145,3.3142,3.3115,3.3113,3.3111,3.3088,3.3096,3.3074,3.3072,3.3086,3.3071,3.3071,3.3053,3.3051,3.3045,3.3032,3.3031,3.3031,3.303,3.303,3.303,0,0,0,0,0,0,0,3.3147,3.3144,3.3115,3.3114,3.3112,3.3105,3.3102,3.3092,3.3072,3.3085,3.3083,3.308,3.3052,3.3047,3.3044,3.303,3.3031,3.303,3.3029,3.3029,3.3012,3.3013,0,0,0,0,0,0,3.3151,3.3145,3.3117,3.3115,3.3128,3.3105,3.3101,3.3095,3.3072,3.3068,3.308,3.3079,3.3049,3.3046,3.3043,3.3039,3.303,3.3029,3.3028,3.3012,3.3012,3.3013,0,0,0,0,0,0,3.3152,3.3149,3.3118,3.3129,3.3125,3.3105,3.3099,3.3095,3.3089,3.3068,3.3064,3.3078,3.3048,3.3045,3.3036,3.3038,3.3028,3.3027,3.3012,3.3012,3.3013,3.3033,0,0,0,0,0,0,3.3153,3.3149,3.315,3.313,3.3124,3.3112,3.3099,3.3094,3.3088,3.3086,3.3065,3.3062,3.3048,3.3038,3.3035,3.3036,3.3026,3.3012,3.3012,3.3012,3.3032,3.3034,3.3036,0,0,0,0,0,3.3155,3.3157,3.315,3.3147,3.3124,3.3112,3.3109,3.3094,3.3088,3.3087,3.3074,3.3062,3.3038,3.3037,3.3034,3.3035,3.3011,3.3012,3.3012,3.3031,3.3034,3.3036,0,0,0,0,0,0,3.3177,3.3154,3.3146,3.3141,3.3129,3.3108,3.3107,3.3097,3.3086,3.3084,3.3065,3.306,3.3053,3.3043,3.3042,3.3032,3.3023,3.3023,3.3039,3.3041,3.3043,3.3045,3.3026,0,0,0,0,0,3.3182,3.3175,3.3154,3.3152,3.3146,3.3128,3.3122,3.3111,3.3097,3.3092,3.3078,3.3064,3.3053,3.3046,3.3035,3.303,3.3025,3.3029,3.3031,3.3033,3.3033,3.3027,3.3029,3.3014,3.3014,3.3014,0,0,3.3191,3.3177,3.3174,3.3156,3.3145,3.3138,3.3124,3.3116,3.311,3.3091,3.3081,3.307,3.3053,3.3046,3.3042,3.3037,3.3035,3.3033,3.3035,3.3034,3.3028,3.3029,3.3031,3.3015,3.3015,3.3015,0,0,3.3203,3.3193,3.3189,3.3178,3.3162,3.315,3.3149,3.3129,3.3121,3.3112,3.3097,3.3088,3.3071,3.3059,3.305,3.3057,3.3046,3.3054,3.3063,3.3058,3.3059,3.306,3.3061,3.3062,3.3054,3.3054,3.3054,0,3.3216,3.3205,3.3188,3.3182,3.3174,3.3156,3.3152,3.3142,3.3123,3.3117,3.3112,3.3088,3.3076,3.3065,3.3066,3.3061,3.3058,3.3056,3.3061,3.3061,3.3062,3.3063,3.3063,3.3055,3.3055,3.3055,3.3055,0,3.3221,3.3213,3.3212,3.3194,3.3186,3.318,3.3162,3.3156,3.3146,3.3133,3.3123,3.3107,3.3092,3.3088,3.3078,3.3075,3.3073,3.3065,3.3056,3.3065,3.3065,3.3065,3.3056,3.3056,3.3056,3.3056,0,0,3.3246,3.3219,3.3219,3.321,3.3191,3.3184,3.3177,3.3162,3.3156,3.3144,3.3136,3.3121,3.3113,3.3103,3.3091,3.3087,3.3091,3.3079,3.3078,3.3081,3.3086,3.3092,3.3092,3.3084,3.3084,3.3084,3.3087,0,3.3255,3.3242,3.3227,3.3219,3.3211,3.3193,3.3187,3.3173,3.3162,3.3152,3.3138,3.3127,3.3118,3.3112,3.3107,3.3092,3.3092,3.3092,3.3075,3.3075,3.308,3.3093,3.3099,3.3103,3.3087,3.3087,3.3087,0,3.3263,3.3251,3.3243,3.3223,3.3219,3.3213,3.3198,3.319,3.3173,3.3165,3.3154,3.3141,3.3131,3.3123,3.3108,3.3108,3.3101,3.3092,3.3092,3.3089,3.3081,3.309,3.3104,3.3104,3.3087,3.3087,3.3087,0,3.3281,3.3263,3.3255,3.3249,3.3225,3.3222,3.3212,3.3195,3.3187,3.3174,3.3168,3.3153,3.3145,3.3133,3.3116,3.3112,3.3102,3.3093,3.3093,3.3094,3.3092,3.3092,3.3105,3.3088,3.3088,3.3088,3.3088,0,3.3292,3.3287,3.3263,3.3258,3.3252,3.3234,3.3228,3.3216,3.3201,3.3193,3.3177,3.3169,3.3147,3.3136,3.3122,3.3111,3.3107,3.3099,3.3095,3.31,3.3101,3.3095,3.3094,3.3088,3.3088,3.3088,3.3088,0,3.3311,3.3295,3.3285,3.3264,3.3259,3.3255,3.3236,3.323,3.3217,3.3206,3.3202,3.3181,3.3168,3.3149,3.3129,3.312,3.311,3.3105,3.3116,3.3114,3.3115,3.3115,3.3123,3.3122,3.3107,3.3107,3.3107,0,3.3319,3.3314,3.3293,3.3287,3.3277,3.3267,3.3259,3.324,3.3232,3.3213,3.3209,3.3194,3.3181,3.3159,3.3141,3.3125,3.3119,3.3123,3.3116,3.3121,3.3118,3.3118,3.3117,3.3124,3.3125,3.3125,3.3125,0,3.3333,3.3325,3.3314,3.3301,3.3291,3.3279,3.3266,3.3262,3.324,3.3232,3.3218,3.3208,3.3187,3.3172,3.3154,3.3142,3.3129,3.3127,3.3126,3.3131,3.3137,3.3133,3.312,3.3127,3.3127,3.3127,3.3127,3.3126,3.3346,3.3341,3.3325,3.3313,3.3302,3.329,3.3283,3.3269,3.3257,3.324,3.3229,3.3216,3.3198,3.3172,3.3161,3.3148,3.3144,3.3142,3.3142,3.3142,3.3143,3.314,3.3145,3.3145,3.3145,3.3145,3.3145,0,3.3359,3.3348,3.3337,3.332,3.331,3.33,3.3285,3.3277,3.3265,3.325,3.3238,3.3221,3.3206,3.3187,3.317,3.3164,3.3157,3.316,3.316,3.3157,3.3149,3.3151,3.3165,3.3165,3.3165,3.3165,3.3165,3.3165,3.3364,3.3355,3.3345,3.333,3.3318,3.3306,3.3298,3.3286,3.3274,3.3256,3.3244,3.3232,3.3214,3.3196,3.3181,3.3176,3.317,3.3174,3.3166,3.3159,3.3158,3.3156,3.3158,3.3173,3.3173,3.3175,3.3175,3.3175]}]]